Index of /20260417/WXO-DD/model_rdps/10km/18/026
Name Last modified Size Description
Parent Directory -
20260417T18Z_MSC_RDPS_AbsoluteVorticity_IsbL-0250_RLatLon0.09_PT026H.grib2 2026-04-17 20:48 605K
20260417T18Z_MSC_RDPS_AbsoluteVorticity_IsbL-0500_RLatLon0.09_PT026H.grib2 2026-04-17 20:48 556K
20260417T18Z_MSC_RDPS_AbsoluteVorticity_IsbL-0700_RLatLon0.09_PT026H.grib2 2026-04-17 20:48 752K
20260417T18Z_MSC_RDPS_AbsoluteVorticity_IsbL-0850_RLatLon0.09_PT026H.grib2 2026-04-17 20:48 791K
20260417T18Z_MSC_RDPS_AirTemp_AGL-120m_RLatLon0.09_PT026H.grib2 2026-04-17 20:48 381K
20260417T18Z_MSC_RDPS_AirTemp_AGL-2m_RLatLon0.09_PT026H.grib2 2026-04-17 20:48 634K
20260417T18Z_MSC_RDPS_AirTemp_AGL-40m_RLatLon0.09_PT026H.grib2 2026-04-17 20:48 406K
20260417T18Z_MSC_RDPS_AirTemp_AGL-80m_RLatLon0.09_PT026H.grib2 2026-04-17 20:48 385K
20260417T18Z_MSC_RDPS_AirTemp_IsbL-0001_RLatLon0.09_PT026H.grib2 2026-04-17 20:48 321K
20260417T18Z_MSC_RDPS_AirTemp_IsbL-0005_RLatLon0.09_PT026H.grib2 2026-04-17 20:48 336K
20260417T18Z_MSC_RDPS_AirTemp_IsbL-0010_RLatLon0.09_PT026H.grib2 2026-04-17 20:48 347K
20260417T18Z_MSC_RDPS_AirTemp_IsbL-0020_RLatLon0.09_PT026H.grib2 2026-04-17 20:48 327K
20260417T18Z_MSC_RDPS_AirTemp_IsbL-0030_RLatLon0.09_PT026H.grib2 2026-04-17 20:48 380K
20260417T18Z_MSC_RDPS_AirTemp_IsbL-0050_RLatLon0.09_PT026H.grib2 2026-04-17 20:48 325K
20260417T18Z_MSC_RDPS_AirTemp_IsbL-0100_RLatLon0.09_PT026H.grib2 2026-04-17 20:48 420K
20260417T18Z_MSC_RDPS_AirTemp_IsbL-0150_RLatLon0.09_PT026H.grib2 2026-04-17 20:48 410K
20260417T18Z_MSC_RDPS_AirTemp_IsbL-0175_RLatLon0.09_PT026H.grib2 2026-04-17 20:48 410K
20260417T18Z_MSC_RDPS_AirTemp_IsbL-0200_RLatLon0.09_PT026H.grib2 2026-04-17 20:48 411K
20260417T18Z_MSC_RDPS_AirTemp_IsbL-0225_RLatLon0.09_PT026H.grib2 2026-04-17 20:48 414K
20260417T18Z_MSC_RDPS_AirTemp_IsbL-0250_RLatLon0.09_PT026H.grib2 2026-04-17 20:48 425K
20260417T18Z_MSC_RDPS_AirTemp_IsbL-0275_RLatLon0.09_PT026H.grib2 2026-04-17 20:48 403K
20260417T18Z_MSC_RDPS_AirTemp_IsbL-0300_RLatLon0.09_PT026H.grib2 2026-04-17 20:48 405K
20260417T18Z_MSC_RDPS_AirTemp_IsbL-0350_RLatLon0.09_PT026H.grib2 2026-04-17 20:48 416K
20260417T18Z_MSC_RDPS_AirTemp_IsbL-0400_RLatLon0.09_PT026H.grib2 2026-04-17 20:48 417K
20260417T18Z_MSC_RDPS_AirTemp_IsbL-0450_RLatLon0.09_PT026H.grib2 2026-04-17 20:48 391K
20260417T18Z_MSC_RDPS_AirTemp_IsbL-0500_RLatLon0.09_PT026H.grib2 2026-04-17 20:48 404K
20260417T18Z_MSC_RDPS_AirTemp_IsbL-0550_RLatLon0.09_PT026H.grib2 2026-04-17 20:48 424K
20260417T18Z_MSC_RDPS_AirTemp_IsbL-0600_RLatLon0.09_PT026H.grib2 2026-04-17 20:48 445K
20260417T18Z_MSC_RDPS_AirTemp_IsbL-0650_RLatLon0.09_PT026H.grib2 2026-04-17 20:48 462K
20260417T18Z_MSC_RDPS_AirTemp_IsbL-0700_RLatLon0.09_PT026H.grib2 2026-04-17 20:48 383K
20260417T18Z_MSC_RDPS_AirTemp_IsbL-0750_RLatLon0.09_PT026H.grib2 2026-04-17 20:48 418K
20260417T18Z_MSC_RDPS_AirTemp_IsbL-0800_RLatLon0.09_PT026H.grib2 2026-04-17 20:48 462K
20260417T18Z_MSC_RDPS_AirTemp_IsbL-0850_RLatLon0.09_PT026H.grib2 2026-04-17 20:48 511K
20260417T18Z_MSC_RDPS_AirTemp_IsbL-0875_RLatLon0.09_PT026H.grib2 2026-04-17 20:48 528K
20260417T18Z_MSC_RDPS_AirTemp_IsbL-0900_RLatLon0.09_PT026H.grib2 2026-04-17 20:48 543K
20260417T18Z_MSC_RDPS_AirTemp_IsbL-0925_RLatLon0.09_PT026H.grib2 2026-04-17 20:48 540K
20260417T18Z_MSC_RDPS_AirTemp_IsbL-0950_RLatLon0.09_PT026H.grib2 2026-04-17 20:48 540K
20260417T18Z_MSC_RDPS_AirTemp_IsbL-0970_RLatLon0.09_PT026H.grib2 2026-04-17 20:48 535K
20260417T18Z_MSC_RDPS_AirTemp_IsbL-0985_RLatLon0.09_PT026H.grib2 2026-04-17 20:48 527K
20260417T18Z_MSC_RDPS_AirTemp_IsbL-1000_RLatLon0.09_PT026H.grib2 2026-04-17 20:48 514K
20260417T18Z_MSC_RDPS_AirTemp_IsbL-1015_RLatLon0.09_PT026H.grib2 2026-04-17 20:48 511K
20260417T18Z_MSC_RDPS_Albedo_Sfc_RLatLon0.09_PT026H.grib2 2026-04-17 20:48 170K
20260417T18Z_MSC_RDPS_CAPE_Sfc_RLatLon0.09_PT026H.grib2 2026-04-17 20:48 1.7M
20260417T18Z_MSC_RDPS_CIN_Sfc_RLatLon0.09_PT026H.grib2 2026-04-17 20:48 1.1M
20260417T18Z_MSC_RDPS_CloudWater_EAtm_RLatLon0.09_PT026H.grib2 2026-04-17 20:48 213K
20260417T18Z_MSC_RDPS_ConvectivePrecip-Accum_Sfc_RLatLon0.09_PT026H.grib2 2026-04-17 20:48 889K
20260417T18Z_MSC_RDPS_DewPointDepression_AGL-2m_RLatLon0.09_PT026H.grib2 2026-04-17 20:48 416K
20260417T18Z_MSC_RDPS_DewPointDepression_IsbL-0001_RLatLon0.09_PT026H.grib2 2026-04-17 20:48 193
20260417T18Z_MSC_RDPS_DewPointDepression_IsbL-0005_RLatLon0.09_PT026H.grib2 2026-04-17 20:48 193
20260417T18Z_MSC_RDPS_DewPointDepression_IsbL-0010_RLatLon0.09_PT026H.grib2 2026-04-17 20:48 193
20260417T18Z_MSC_RDPS_DewPointDepression_IsbL-0020_RLatLon0.09_PT026H.grib2 2026-04-17 20:48 193
20260417T18Z_MSC_RDPS_DewPointDepression_IsbL-0030_RLatLon0.09_PT026H.grib2 2026-04-17 20:48 1.2K
20260417T18Z_MSC_RDPS_DewPointDepression_IsbL-0050_RLatLon0.09_PT026H.grib2 2026-04-17 20:48 104K
20260417T18Z_MSC_RDPS_DewPointDepression_IsbL-0100_RLatLon0.09_PT026H.grib2 2026-04-17 20:48 122K
20260417T18Z_MSC_RDPS_DewPointDepression_IsbL-0150_RLatLon0.09_PT026H.grib2 2026-04-17 20:48 146K
20260417T18Z_MSC_RDPS_DewPointDepression_IsbL-0175_RLatLon0.09_PT026H.grib2 2026-04-17 20:48 179K
20260417T18Z_MSC_RDPS_DewPointDepression_IsbL-0200_RLatLon0.09_PT026H.grib2 2026-04-17 20:48 206K
20260417T18Z_MSC_RDPS_DewPointDepression_IsbL-0225_RLatLon0.09_PT026H.grib2 2026-04-17 20:48 242K
20260417T18Z_MSC_RDPS_DewPointDepression_IsbL-0250_RLatLon0.09_PT026H.grib2 2026-04-17 20:48 288K
20260417T18Z_MSC_RDPS_DewPointDepression_IsbL-0275_RLatLon0.09_PT026H.grib2 2026-04-17 20:48 296K
20260417T18Z_MSC_RDPS_DewPointDepression_IsbL-0300_RLatLon0.09_PT026H.grib2 2026-04-17 20:48 313K
20260417T18Z_MSC_RDPS_DewPointDepression_IsbL-0350_RLatLon0.09_PT026H.grib2 2026-04-17 20:48 319K
20260417T18Z_MSC_RDPS_DewPointDepression_IsbL-0400_RLatLon0.09_PT026H.grib2 2026-04-17 20:48 333K
20260417T18Z_MSC_RDPS_DewPointDepression_IsbL-0450_RLatLon0.09_PT026H.grib2 2026-04-17 20:48 341K
20260417T18Z_MSC_RDPS_DewPointDepression_IsbL-0500_RLatLon0.09_PT026H.grib2 2026-04-17 20:48 345K
20260417T18Z_MSC_RDPS_DewPointDepression_IsbL-0550_RLatLon0.09_PT026H.grib2 2026-04-17 20:48 356K
20260417T18Z_MSC_RDPS_DewPointDepression_IsbL-0600_RLatLon0.09_PT026H.grib2 2026-04-17 20:48 371K
20260417T18Z_MSC_RDPS_DewPointDepression_IsbL-0650_RLatLon0.09_PT026H.grib2 2026-04-17 20:48 381K
20260417T18Z_MSC_RDPS_DewPointDepression_IsbL-0700_RLatLon0.09_PT026H.grib2 2026-04-17 20:48 398K
20260417T18Z_MSC_RDPS_DewPointDepression_IsbL-0750_RLatLon0.09_PT026H.grib2 2026-04-17 20:48 424K
20260417T18Z_MSC_RDPS_DewPointDepression_IsbL-0800_RLatLon0.09_PT026H.grib2 2026-04-17 20:48 454K
20260417T18Z_MSC_RDPS_DewPointDepression_IsbL-0850_RLatLon0.09_PT026H.grib2 2026-04-17 20:48 477K
20260417T18Z_MSC_RDPS_DewPointDepression_IsbL-0875_RLatLon0.09_PT026H.grib2 2026-04-17 20:48 474K
20260417T18Z_MSC_RDPS_DewPointDepression_IsbL-0900_RLatLon0.09_PT026H.grib2 2026-04-17 20:48 464K
20260417T18Z_MSC_RDPS_DewPointDepression_IsbL-0925_RLatLon0.09_PT026H.grib2 2026-04-17 20:48 454K
20260417T18Z_MSC_RDPS_DewPointDepression_IsbL-0950_RLatLon0.09_PT026H.grib2 2026-04-17 20:48 447K
20260417T18Z_MSC_RDPS_DewPointDepression_IsbL-0970_RLatLon0.09_PT026H.grib2 2026-04-17 20:48 440K
20260417T18Z_MSC_RDPS_DewPointDepression_IsbL-0985_RLatLon0.09_PT026H.grib2 2026-04-17 20:48 436K
20260417T18Z_MSC_RDPS_DewPointDepression_IsbL-1000_RLatLon0.09_PT026H.grib2 2026-04-17 20:48 432K
20260417T18Z_MSC_RDPS_DewPointDepression_IsbL-1015_RLatLon0.09_PT026H.grib2 2026-04-17 20:48 422K
20260417T18Z_MSC_RDPS_DewPoint_AGL-2m_RLatLon0.09_PT026H.grib2 2026-04-17 20:48 406K
20260417T18Z_MSC_RDPS_DownwardLongwaveRadiationFlux-Accum_Sfc_RLatLon0.09_PT026H.grib2 2026-04-17 20:48 440K
20260417T18Z_MSC_RDPS_DownwardShortwaveRadiationFlux-Accum_NTAtm_RLatLon0.09_PT026H.grib2 2026-04-17 20:48 110K
20260417T18Z_MSC_RDPS_DownwardShortwaveRadiationFlux-Accum_Sfc_RLatLon0.09_PT026H.grib2 2026-04-17 20:48 647K
20260417T18Z_MSC_RDPS_FreezingRain-Accum1h_Sfc_RLatLon0.09_PT026H.grib2 2026-04-17 20:48 13K
20260417T18Z_MSC_RDPS_FreezingRain-Accum_Sfc_RLatLon0.09_PT026H.grib2 2026-04-17 20:48 101K
20260417T18Z_MSC_RDPS_GeopotentialHeight_IsbL-0001_RLatLon0.09_PT026H.grib2 2026-04-17 20:48 275K
20260417T18Z_MSC_RDPS_GeopotentialHeight_IsbL-0005_RLatLon0.09_PT026H.grib2 2026-04-17 20:48 238K
20260417T18Z_MSC_RDPS_GeopotentialHeight_IsbL-0010_RLatLon0.09_PT026H.grib2 2026-04-17 20:48 313K
20260417T18Z_MSC_RDPS_GeopotentialHeight_IsbL-0020_RLatLon0.09_PT026H.grib2 2026-04-17 20:48 340K
20260417T18Z_MSC_RDPS_GeopotentialHeight_IsbL-0030_RLatLon0.09_PT026H.grib2 2026-04-17 20:48 343K
20260417T18Z_MSC_RDPS_GeopotentialHeight_IsbL-0050_RLatLon0.09_PT026H.grib2 2026-04-17 20:48 312K
20260417T18Z_MSC_RDPS_GeopotentialHeight_IsbL-0100_RLatLon0.09_PT026H.grib2 2026-04-17 20:48 287K
20260417T18Z_MSC_RDPS_GeopotentialHeight_IsbL-0150_RLatLon0.09_PT026H.grib2 2026-04-17 20:48 260K
20260417T18Z_MSC_RDPS_GeopotentialHeight_IsbL-0175_RLatLon0.09_PT026H.grib2 2026-04-17 20:48 262K
20260417T18Z_MSC_RDPS_GeopotentialHeight_IsbL-0200_RLatLon0.09_PT026H.grib2 2026-04-17 20:48 264K
20260417T18Z_MSC_RDPS_GeopotentialHeight_IsbL-0225_RLatLon0.09_PT026H.grib2 2026-04-17 20:48 266K
20260417T18Z_MSC_RDPS_GeopotentialHeight_IsbL-0250_RLatLon0.09_PT026H.grib2 2026-04-17 20:48 267K
20260417T18Z_MSC_RDPS_GeopotentialHeight_IsbL-0275_RLatLon0.09_PT026H.grib2 2026-04-17 20:48 267K
20260417T18Z_MSC_RDPS_GeopotentialHeight_IsbL-0300_RLatLon0.09_PT026H.grib2 2026-04-17 20:48 265K
20260417T18Z_MSC_RDPS_GeopotentialHeight_IsbL-0350_RLatLon0.09_PT026H.grib2 2026-04-17 20:48 230K
20260417T18Z_MSC_RDPS_GeopotentialHeight_IsbL-0400_RLatLon0.09_PT026H.grib2 2026-04-17 20:48 227K
20260417T18Z_MSC_RDPS_GeopotentialHeight_IsbL-0450_RLatLon0.09_PT026H.grib2 2026-04-17 20:48 296K
20260417T18Z_MSC_RDPS_GeopotentialHeight_IsbL-0500_RLatLon0.09_PT026H.grib2 2026-04-17 20:48 291K
20260417T18Z_MSC_RDPS_GeopotentialHeight_IsbL-0550_RLatLon0.09_PT026H.grib2 2026-04-17 20:48 287K
20260417T18Z_MSC_RDPS_GeopotentialHeight_IsbL-0600_RLatLon0.09_PT026H.grib2 2026-04-17 20:48 285K
20260417T18Z_MSC_RDPS_GeopotentialHeight_IsbL-0650_RLatLon0.09_PT026H.grib2 2026-04-17 20:48 283K
20260417T18Z_MSC_RDPS_GeopotentialHeight_IsbL-0700_RLatLon0.09_PT026H.grib2 2026-04-17 20:48 283K
20260417T18Z_MSC_RDPS_GeopotentialHeight_IsbL-0750_RLatLon0.09_PT026H.grib2 2026-04-17 20:48 285K
20260417T18Z_MSC_RDPS_GeopotentialHeight_IsbL-0800_RLatLon0.09_PT026H.grib2 2026-04-17 20:48 265K
20260417T18Z_MSC_RDPS_GeopotentialHeight_IsbL-0850_RLatLon0.09_PT026H.grib2 2026-04-17 20:48 274K
20260417T18Z_MSC_RDPS_GeopotentialHeight_IsbL-0875_RLatLon0.09_PT026H.grib2 2026-04-17 20:48 276K
20260417T18Z_MSC_RDPS_GeopotentialHeight_IsbL-0900_RLatLon0.09_PT026H.grib2 2026-04-17 20:48 280K
20260417T18Z_MSC_RDPS_GeopotentialHeight_IsbL-0925_RLatLon0.09_PT026H.grib2 2026-04-17 20:48 283K
20260417T18Z_MSC_RDPS_GeopotentialHeight_IsbL-0950_RLatLon0.09_PT026H.grib2 2026-04-17 20:48 286K
20260417T18Z_MSC_RDPS_GeopotentialHeight_IsbL-0970_RLatLon0.09_PT026H.grib2 2026-04-17 20:48 292K
20260417T18Z_MSC_RDPS_GeopotentialHeight_IsbL-0985_RLatLon0.09_PT026H.grib2 2026-04-17 20:48 299K
20260417T18Z_MSC_RDPS_GeopotentialHeight_IsbL-1000_RLatLon0.09_PT026H.grib2 2026-04-17 20:48 309K
20260417T18Z_MSC_RDPS_GeopotentialHeight_IsbL-1015_RLatLon0.09_PT026H.grib2 2026-04-17 20:48 321K
20260417T18Z_MSC_RDPS_Humidex_Sfc_RLatLon0.09_PT026H.grib2 2026-04-17 20:48 2.4M
20260417T18Z_MSC_RDPS_IcePellets-Accum1h_Sfc_RLatLon0.09_PT026H.grib2 2026-04-17 20:48 8.0K
20260417T18Z_MSC_RDPS_IcePellets-Accum_Sfc_RLatLon0.09_PT026H.grib2 2026-04-17 20:48 42K
20260417T18Z_MSC_RDPS_KIndex_Sfc_RLatLon0.09_PT026H.grib2 2026-04-17 20:48 2.5M
20260417T18Z_MSC_RDPS_LatentHeatNetFlux_Sfc_RLatLon0.09_PT026H.grib2 2026-04-17 20:48 296K
20260417T18Z_MSC_RDPS_LiftedIndex-MU-VT_IsbL-0500_RLatLon0.09_PT026H.grib2 2026-04-17 20:48 2.4M
20260417T18Z_MSC_RDPS_NetLongwaveRadiationFlux-Accum_Sfc_RLatLon0.09_PT026H.grib2 2026-04-17 20:48 590K
20260417T18Z_MSC_RDPS_NetShortwaveRadiationFlux-Accum_Sfc_RLatLon0.09_PT026H.grib2 2026-04-17 20:48 650K
20260417T18Z_MSC_RDPS_PlanetaryBoundaryLayerHeight_Sfc_RLatLon0.09_PT026H.grib2 2026-04-17 20:48 1.0M
20260417T18Z_MSC_RDPS_Precip-Accum1h_Sfc_RLatLon0.09_PT026H.grib2 2026-04-17 20:48 1.3M
20260417T18Z_MSC_RDPS_Precip-Accum_Sfc_RLatLon0.09_PT026H.grib2 2026-04-17 20:48 1.8M
20260417T18Z_MSC_RDPS_PrecipRate_Sfc_RLatLon0.09_PT026H.grib2 2026-04-17 20:48 184K
20260417T18Z_MSC_RDPS_PrecipType-Instant_Sfc_RLatLon0.09_PT026H.grib2 2026-04-17 20:48 547K
20260417T18Z_MSC_RDPS_Pressure-Trend3h_Sfc_RLatLon0.09_PT026H.grib2 2026-04-17 20:48 1.2M
20260417T18Z_MSC_RDPS_Pressure_MSL_RLatLon0.09_PT026H.grib2 2026-04-17 20:48 333K
20260417T18Z_MSC_RDPS_Pressure_PVU-1.5_RLatLon0.09_PT026H.grib2 2026-04-17 20:48 2.3M
20260417T18Z_MSC_RDPS_Pressure_PVU-1_RLatLon0.09_PT026H.grib2 2026-04-17 20:48 2.4M
20260417T18Z_MSC_RDPS_Pressure_PVU-2_RLatLon0.09_PT026H.grib2 2026-04-17 20:48 2.4M
20260417T18Z_MSC_RDPS_Pressure_Sfc_RLatLon0.09_PT026H.grib2 2026-04-17 20:48 500K
20260417T18Z_MSC_RDPS_RadiativeTemp_Sfc_RLatLon0.09_PT026H.grib2 2026-04-17 20:48 332K
20260417T18Z_MSC_RDPS_Rain-Accum1h_Sfc_RLatLon0.09_PT026H.grib2 2026-04-17 20:48 602K
20260417T18Z_MSC_RDPS_Rain-Accum_Sfc_RLatLon0.09_PT026H.grib2 2026-04-17 20:48 1.3M
20260417T18Z_MSC_RDPS_RelativeHumidity_AGL-2m_RLatLon0.09_PT026H.grib2 2026-04-17 20:48 1.0M
20260417T18Z_MSC_RDPS_RelativeHumidity_IsbL-0010_RLatLon0.09_PT026H.grib2 2026-04-17 20:48 515K
20260417T18Z_MSC_RDPS_RelativeHumidity_IsbL-0020_RLatLon0.09_PT026H.grib2 2026-04-17 20:48 402K
20260417T18Z_MSC_RDPS_RelativeHumidity_IsbL-0030_RLatLon0.09_PT026H.grib2 2026-04-17 20:48 468K
20260417T18Z_MSC_RDPS_RelativeHumidity_IsbL-0050_RLatLon0.09_PT026H.grib2 2026-04-17 20:48 340K
20260417T18Z_MSC_RDPS_RelativeHumidity_IsbL-0100_RLatLon0.09_PT026H.grib2 2026-04-17 20:48 259K
20260417T18Z_MSC_RDPS_RelativeHumidity_IsbL-0150_RLatLon0.09_PT026H.grib2 2026-04-17 20:48 386K
20260417T18Z_MSC_RDPS_RelativeHumidity_IsbL-0175_RLatLon0.09_PT026H.grib2 2026-04-17 20:48 473K
20260417T18Z_MSC_RDPS_RelativeHumidity_IsbL-0200_RLatLon0.09_PT026H.grib2 2026-04-17 20:48 545K
20260417T18Z_MSC_RDPS_RelativeHumidity_IsbL-0225_RLatLon0.09_PT026H.grib2 2026-04-17 20:48 607K
20260417T18Z_MSC_RDPS_RelativeHumidity_IsbL-0250_RLatLon0.09_PT026H.grib2 2026-04-17 20:48 678K
20260417T18Z_MSC_RDPS_RelativeHumidity_IsbL-0275_RLatLon0.09_PT026H.grib2 2026-04-17 20:48 700K
20260417T18Z_MSC_RDPS_RelativeHumidity_IsbL-0300_RLatLon0.09_PT026H.grib2 2026-04-17 20:48 737K
20260417T18Z_MSC_RDPS_RelativeHumidity_IsbL-0350_RLatLon0.09_PT026H.grib2 2026-04-17 20:48 751K
20260417T18Z_MSC_RDPS_RelativeHumidity_IsbL-0400_RLatLon0.09_PT026H.grib2 2026-04-17 20:48 766K
20260417T18Z_MSC_RDPS_RelativeHumidity_IsbL-0450_RLatLon0.09_PT026H.grib2 2026-04-17 20:48 775K
20260417T18Z_MSC_RDPS_RelativeHumidity_IsbL-0500_RLatLon0.09_PT026H.grib2 2026-04-17 20:48 783K
20260417T18Z_MSC_RDPS_RelativeHumidity_IsbL-0550_RLatLon0.09_PT026H.grib2 2026-04-17 20:48 821K
20260417T18Z_MSC_RDPS_RelativeHumidity_IsbL-0600_RLatLon0.09_PT026H.grib2 2026-04-17 20:48 844K
20260417T18Z_MSC_RDPS_RelativeHumidity_IsbL-0650_RLatLon0.09_PT026H.grib2 2026-04-17 20:48 857K
20260417T18Z_MSC_RDPS_RelativeHumidity_IsbL-0700_RLatLon0.09_PT026H.grib2 2026-04-17 20:48 886K
20260417T18Z_MSC_RDPS_RelativeHumidity_IsbL-0750_RLatLon0.09_PT026H.grib2 2026-04-17 20:48 933K
20260417T18Z_MSC_RDPS_RelativeHumidity_IsbL-0800_RLatLon0.09_PT026H.grib2 2026-04-17 20:48 1.0M
20260417T18Z_MSC_RDPS_RelativeHumidity_IsbL-0850_RLatLon0.09_PT026H.grib2 2026-04-17 20:48 1.0M
20260417T18Z_MSC_RDPS_RelativeHumidity_IsbL-0875_RLatLon0.09_PT026H.grib2 2026-04-17 20:48 1.1M
20260417T18Z_MSC_RDPS_RelativeHumidity_IsbL-0900_RLatLon0.09_PT026H.grib2 2026-04-17 20:48 1.1M
20260417T18Z_MSC_RDPS_RelativeHumidity_IsbL-0925_RLatLon0.09_PT026H.grib2 2026-04-17 20:48 1.1M
20260417T18Z_MSC_RDPS_RelativeHumidity_IsbL-0950_RLatLon0.09_PT026H.grib2 2026-04-17 20:48 1.1M
20260417T18Z_MSC_RDPS_RelativeHumidity_IsbL-0970_RLatLon0.09_PT026H.grib2 2026-04-17 20:48 1.1M
20260417T18Z_MSC_RDPS_RelativeHumidity_IsbL-0985_RLatLon0.09_PT026H.grib2 2026-04-17 20:48 1.0M
20260417T18Z_MSC_RDPS_RelativeHumidity_IsbL-1000_RLatLon0.09_PT026H.grib2 2026-04-17 20:48 1.0M
20260417T18Z_MSC_RDPS_RelativeHumidity_IsbL-1015_RLatLon0.09_PT026H.grib2 2026-04-17 20:48 1.0M
20260417T18Z_MSC_RDPS_Runoff-Accum_Sfc_RLatLon0.09_PT026H.grib2 2026-04-17 20:48 53K
20260417T18Z_MSC_RDPS_SWEATIndex_Sfc_RLatLon0.09_PT026H.grib2 2026-04-17 20:48 2.4M
20260417T18Z_MSC_RDPS_SeeingIndex_EAtm_RLatLon0.09_PT026H.grib2 2026-04-17 20:48 1.0M
20260417T18Z_MSC_RDPS_SensibleHeatNetFlux_Sfc_RLatLon0.09_PT026H.grib2 2026-04-17 20:48 365K
20260417T18Z_MSC_RDPS_ShowalterIndex_IsbL-0500_RLatLon0.09_PT026H.grib2 2026-04-17 20:48 2.6M
20260417T18Z_MSC_RDPS_SkyTransparencyIndex_EAtm_RLatLon0.09_PT026H.grib2 2026-04-17 20:48 716K
20260417T18Z_MSC_RDPS_Snow-Accum1h_Sfc_RLatLon0.09_PT026H.grib2 2026-04-17 20:48 464K
20260417T18Z_MSC_RDPS_Snow-Accum_Sfc_RLatLon0.09_PT026H.grib2 2026-04-17 20:48 711K
20260417T18Z_MSC_RDPS_SnowDensity_Sfc_RLatLon0.09_PT026H.grib2 2026-04-17 20:48 179K
20260417T18Z_MSC_RDPS_SnowDepth_Sfc_RLatLon0.09_PT026H.grib2 2026-04-17 20:48 728K
20260417T18Z_MSC_RDPS_SoilTemp_DBS-0to10cm_RLatLon0.09_PT026H.grib2 2026-04-17 20:48 225K
20260417T18Z_MSC_RDPS_SoilTemp_Sfc_RLatLon0.09_PT026H.grib2 2026-04-17 20:48 289K
20260417T18Z_MSC_RDPS_SoilVolumetricIceContent_Sfc_RLatLon0.09_PT026H.grib2 2026-04-17 20:48 176K
20260417T18Z_MSC_RDPS_SoilVolumetricWaterContent_DBS-0to10cm_RLatLon0.09_PT026H.grib2 2026-04-17 20:48 247K
20260417T18Z_MSC_RDPS_SoilVolumetricWaterContent_DBS-0to1cm_RLatLon0.09_PT026H.grib2 2026-04-17 20:48 334K
20260417T18Z_MSC_RDPS_SpecificHumidity_AGL-120m_RLatLon0.09_PT026H.grib2 2026-04-17 20:48 484K
20260417T18Z_MSC_RDPS_SpecificHumidity_AGL-2m_RLatLon0.09_PT026H.grib2 2026-04-17 20:48 651K
20260417T18Z_MSC_RDPS_SpecificHumidity_AGL-40m_RLatLon0.09_PT026H.grib2 2026-04-17 20:48 488K
20260417T18Z_MSC_RDPS_SpecificHumidity_AGL-80m_RLatLon0.09_PT026H.grib2 2026-04-17 20:48 485K
20260417T18Z_MSC_RDPS_SpecificHumidity_IsbL-0001_RLatLon0.09_PT026H.grib2 2026-04-17 20:48 311K
20260417T18Z_MSC_RDPS_SpecificHumidity_IsbL-0005_RLatLon0.09_PT026H.grib2 2026-04-17 20:48 345K
20260417T18Z_MSC_RDPS_SpecificHumidity_IsbL-0010_RLatLon0.09_PT026H.grib2 2026-04-17 20:48 382K
20260417T18Z_MSC_RDPS_SpecificHumidity_IsbL-0020_RLatLon0.09_PT026H.grib2 2026-04-17 20:48 381K
20260417T18Z_MSC_RDPS_SpecificHumidity_IsbL-0030_RLatLon0.09_PT026H.grib2 2026-04-17 20:48 466K
20260417T18Z_MSC_RDPS_SpecificHumidity_IsbL-0050_RLatLon0.09_PT026H.grib2 2026-04-17 20:48 467K
20260417T18Z_MSC_RDPS_SpecificHumidity_IsbL-0100_RLatLon0.09_PT026H.grib2 2026-04-17 20:48 385K
20260417T18Z_MSC_RDPS_SpecificHumidity_IsbL-0150_RLatLon0.09_PT026H.grib2 2026-04-17 20:48 441K
20260417T18Z_MSC_RDPS_SpecificHumidity_IsbL-0175_RLatLon0.09_PT026H.grib2 2026-04-17 20:48 536K
20260417T18Z_MSC_RDPS_SpecificHumidity_IsbL-0200_RLatLon0.09_PT026H.grib2 2026-04-17 20:48 544K
20260417T18Z_MSC_RDPS_SpecificHumidity_IsbL-0225_RLatLon0.09_PT026H.grib2 2026-04-17 20:48 546K
20260417T18Z_MSC_RDPS_SpecificHumidity_IsbL-0250_RLatLon0.09_PT026H.grib2 2026-04-17 20:48 547K
20260417T18Z_MSC_RDPS_SpecificHumidity_IsbL-0275_RLatLon0.09_PT026H.grib2 2026-04-17 20:48 459K
20260417T18Z_MSC_RDPS_SpecificHumidity_IsbL-0300_RLatLon0.09_PT026H.grib2 2026-04-17 20:48 526K
20260417T18Z_MSC_RDPS_SpecificHumidity_IsbL-0350_RLatLon0.09_PT026H.grib2 2026-04-17 20:48 514K
20260417T18Z_MSC_RDPS_SpecificHumidity_IsbL-0400_RLatLon0.09_PT026H.grib2 2026-04-17 20:48 499K
20260417T18Z_MSC_RDPS_SpecificHumidity_IsbL-0450_RLatLon0.09_PT026H.grib2 2026-04-17 20:48 555K
20260417T18Z_MSC_RDPS_SpecificHumidity_IsbL-0500_RLatLon0.09_PT026H.grib2 2026-04-17 20:48 491K
20260417T18Z_MSC_RDPS_SpecificHumidity_IsbL-0550_RLatLon0.09_PT026H.grib2 2026-04-17 20:48 552K
20260417T18Z_MSC_RDPS_SpecificHumidity_IsbL-0600_RLatLon0.09_PT026H.grib2 2026-04-17 20:48 622K
20260417T18Z_MSC_RDPS_SpecificHumidity_IsbL-0650_RLatLon0.09_PT026H.grib2 2026-04-17 20:48 542K
20260417T18Z_MSC_RDPS_SpecificHumidity_IsbL-0700_RLatLon0.09_PT026H.grib2 2026-04-17 20:48 588K
20260417T18Z_MSC_RDPS_SpecificHumidity_IsbL-0750_RLatLon0.09_PT026H.grib2 2026-04-17 20:48 645K
20260417T18Z_MSC_RDPS_SpecificHumidity_IsbL-0800_RLatLon0.09_PT026H.grib2 2026-04-17 20:48 728K
20260417T18Z_MSC_RDPS_SpecificHumidity_IsbL-0850_RLatLon0.09_PT026H.grib2 2026-04-17 20:48 799K
20260417T18Z_MSC_RDPS_SpecificHumidity_IsbL-0875_RLatLon0.09_PT026H.grib2 2026-04-17 20:48 819K
20260417T18Z_MSC_RDPS_SpecificHumidity_IsbL-0900_RLatLon0.09_PT026H.grib2 2026-04-17 20:48 829K
20260417T18Z_MSC_RDPS_SpecificHumidity_IsbL-0925_RLatLon0.09_PT026H.grib2 2026-04-17 20:48 834K
20260417T18Z_MSC_RDPS_SpecificHumidity_IsbL-0950_RLatLon0.09_PT026H.grib2 2026-04-17 20:48 695K
20260417T18Z_MSC_RDPS_SpecificHumidity_IsbL-0970_RLatLon0.09_PT026H.grib2 2026-04-17 20:48 689K
20260417T18Z_MSC_RDPS_SpecificHumidity_IsbL-0985_RLatLon0.09_PT026H.grib2 2026-04-17 20:48 682K
20260417T18Z_MSC_RDPS_SpecificHumidity_IsbL-1000_RLatLon0.09_PT026H.grib2 2026-04-17 20:48 673K
20260417T18Z_MSC_RDPS_SpecificHumidity_IsbL-1015_RLatLon0.09_PT026H.grib2 2026-04-17 20:48 663K
20260417T18Z_MSC_RDPS_SpecificHumidity_Sfc_RLatLon0.09_PT026H.grib2 2026-04-17 20:48 336K
20260417T18Z_MSC_RDPS_StormRelativeHelicity_EtaL-10000_RLatLon0.09_PT026H.grib2 2026-04-17 20:48 1.1M
20260417T18Z_MSC_RDPS_StormSeverityIndex_EtaL-10000_RLatLon0.09_PT026H.grib2 2026-04-17 20:48 1.2M
20260417T18Z_MSC_RDPS_Thickness_IsbL-0850to0700_RLatLon0.09_PT026H.grib2 2026-04-17 20:48 180K
20260417T18Z_MSC_RDPS_Thickness_IsbL-1000to0500_RLatLon0.09_PT026H.grib2 2026-04-17 20:48 205K
20260417T18Z_MSC_RDPS_Thickness_IsbL-1000to0850_RLatLon0.09_PT026H.grib2 2026-04-17 20:48 191K
20260417T18Z_MSC_RDPS_TotalCloudCover_Sfc_RLatLon0.09_PT026H.grib2 2026-04-17 20:48 651K
20260417T18Z_MSC_RDPS_TotalTotalsIndex_Sfc_RLatLon0.09_PT026H.grib2 2026-04-17 20:48 2.4M
20260417T18Z_MSC_RDPS_UVIndex-ClearSky_Sfc_RLatLon0.09_PT026H.grib2 2026-04-17 20:48 210K
20260417T18Z_MSC_RDPS_UVIndex_Sfc_RLatLon0.09_PT026H.grib2 2026-04-17 20:48 482K
20260417T18Z_MSC_RDPS_UpwardLongwaveRadiationFlux_NTAtm_RLatLon0.09_PT026H.grib2 2026-04-17 20:48 377K
20260417T18Z_MSC_RDPS_UpwardShortwaveRadiationFlux_NTAtm_RLatLon0.09_PT026H.grib2 2026-04-17 20:48 525K
20260417T18Z_MSC_RDPS_VerticalVelocity_IsbL-0250_RLatLon0.09_PT026H.grib2 2026-04-17 20:48 553K
20260417T18Z_MSC_RDPS_VerticalVelocity_IsbL-0500_RLatLon0.09_PT026H.grib2 2026-04-17 20:48 676K
20260417T18Z_MSC_RDPS_VerticalVelocity_IsbL-0700_RLatLon0.09_PT026H.grib2 2026-04-17 20:48 595K
20260417T18Z_MSC_RDPS_VerticalVelocity_IsbL-0850_RLatLon0.09_PT026H.grib2 2026-04-17 20:48 700K
20260417T18Z_MSC_RDPS_VerticalWindShear_EtaL-6500_RLatLon0.09_PT026H.grib2 2026-04-17 20:48 1.2M
20260417T18Z_MSC_RDPS_WindChill_Sfc_RLatLon0.09_PT026H.grib2 2026-04-17 20:48 1.2M
20260417T18Z_MSC_RDPS_WindDir_AGL-10m_RLatLon0.09_PT026H.grib2 2026-04-17 20:48 960K
20260417T18Z_MSC_RDPS_WindDir_AGL-120m_RLatLon0.09_PT026H.grib2 2026-04-17 20:48 604K
20260417T18Z_MSC_RDPS_WindDir_AGL-40m_RLatLon0.09_PT026H.grib2 2026-04-17 20:48 626K
20260417T18Z_MSC_RDPS_WindDir_AGL-80m_RLatLon0.09_PT026H.grib2 2026-04-17 20:48 613K
20260417T18Z_MSC_RDPS_WindDir_IsbL-0001_RLatLon0.09_PT026H.grib2 2026-04-17 20:48 258K
20260417T18Z_MSC_RDPS_WindDir_IsbL-0005_RLatLon0.09_PT026H.grib2 2026-04-17 20:48 333K
20260417T18Z_MSC_RDPS_WindDir_IsbL-0010_RLatLon0.09_PT026H.grib2 2026-04-17 20:48 354K
20260417T18Z_MSC_RDPS_WindDir_IsbL-0020_RLatLon0.09_PT026H.grib2 2026-04-17 20:48 377K
20260417T18Z_MSC_RDPS_WindDir_IsbL-0030_RLatLon0.09_PT026H.grib2 2026-04-17 20:48 387K
20260417T18Z_MSC_RDPS_WindDir_IsbL-0050_RLatLon0.09_PT026H.grib2 2026-04-17 20:48 406K
20260417T18Z_MSC_RDPS_WindDir_IsbL-0100_RLatLon0.09_PT026H.grib2 2026-04-17 20:48 394K
20260417T18Z_MSC_RDPS_WindDir_IsbL-0150_RLatLon0.09_PT026H.grib2 2026-04-17 20:48 380K
20260417T18Z_MSC_RDPS_WindDir_IsbL-0175_RLatLon0.09_PT026H.grib2 2026-04-17 20:48 408K
20260417T18Z_MSC_RDPS_WindDir_IsbL-0200_RLatLon0.09_PT026H.grib2 2026-04-17 20:48 426K
20260417T18Z_MSC_RDPS_WindDir_IsbL-0225_RLatLon0.09_PT026H.grib2 2026-04-17 20:48 429K
20260417T18Z_MSC_RDPS_WindDir_IsbL-0250_RLatLon0.09_PT026H.grib2 2026-04-17 20:48 429K
20260417T18Z_MSC_RDPS_WindDir_IsbL-0275_RLatLon0.09_PT026H.grib2 2026-04-17 20:48 446K
20260417T18Z_MSC_RDPS_WindDir_IsbL-0300_RLatLon0.09_PT026H.grib2 2026-04-17 20:48 445K
20260417T18Z_MSC_RDPS_WindDir_IsbL-0350_RLatLon0.09_PT026H.grib2 2026-04-17 20:48 467K
20260417T18Z_MSC_RDPS_WindDir_IsbL-0400_RLatLon0.09_PT026H.grib2 2026-04-17 20:48 484K
20260417T18Z_MSC_RDPS_WindDir_IsbL-0450_RLatLon0.09_PT026H.grib2 2026-04-17 20:48 503K
20260417T18Z_MSC_RDPS_WindDir_IsbL-0500_RLatLon0.09_PT026H.grib2 2026-04-17 20:48 523K
20260417T18Z_MSC_RDPS_WindDir_IsbL-0550_RLatLon0.09_PT026H.grib2 2026-04-17 20:48 556K
20260417T18Z_MSC_RDPS_WindDir_IsbL-0600_RLatLon0.09_PT026H.grib2 2026-04-17 20:48 589K
20260417T18Z_MSC_RDPS_WindDir_IsbL-0650_RLatLon0.09_PT026H.grib2 2026-04-17 20:48 630K
20260417T18Z_MSC_RDPS_WindDir_IsbL-0700_RLatLon0.09_PT026H.grib2 2026-04-17 20:48 682K
20260417T18Z_MSC_RDPS_WindDir_IsbL-0750_RLatLon0.09_PT026H.grib2 2026-04-17 20:48 732K
20260417T18Z_MSC_RDPS_WindDir_IsbL-0800_RLatLon0.09_PT026H.grib2 2026-04-17 20:48 791K
20260417T18Z_MSC_RDPS_WindDir_IsbL-0850_RLatLon0.09_PT026H.grib2 2026-04-17 20:48 861K
20260417T18Z_MSC_RDPS_WindDir_IsbL-0875_RLatLon0.09_PT026H.grib2 2026-04-17 20:48 888K
20260417T18Z_MSC_RDPS_WindDir_IsbL-0900_RLatLon0.09_PT026H.grib2 2026-04-17 20:48 904K
20260417T18Z_MSC_RDPS_WindDir_IsbL-0925_RLatLon0.09_PT026H.grib2 2026-04-17 20:48 909K
20260417T18Z_MSC_RDPS_WindDir_IsbL-0950_RLatLon0.09_PT026H.grib2 2026-04-17 20:48 904K
20260417T18Z_MSC_RDPS_WindDir_IsbL-0970_RLatLon0.09_PT026H.grib2 2026-04-17 20:48 908K
20260417T18Z_MSC_RDPS_WindDir_IsbL-0985_RLatLon0.09_PT026H.grib2 2026-04-17 20:48 917K
20260417T18Z_MSC_RDPS_WindDir_IsbL-1000_RLatLon0.09_PT026H.grib2 2026-04-17 20:48 933K
20260417T18Z_MSC_RDPS_WindDir_IsbL-1015_RLatLon0.09_PT026H.grib2 2026-04-17 20:48 951K
20260417T18Z_MSC_RDPS_WindGust-Max_AGL-10m_RLatLon0.09_PT026H.grib2 2026-04-17 20:48 950K
20260417T18Z_MSC_RDPS_WindGust-Min_AGL-10m_RLatLon0.09_PT026H.grib2 2026-04-17 20:48 1.0M
20260417T18Z_MSC_RDPS_WindGust_AGL-10m_RLatLon0.09_PT026H.grib2 2026-04-17 20:48 1.0M
20260417T18Z_MSC_RDPS_WindSpeed_AGL-10m_RLatLon0.09_PT026H.grib2 2026-04-17 20:48 850K
20260417T18Z_MSC_RDPS_WindSpeed_AGL-120m_RLatLon0.09_PT026H.grib2 2026-04-17 20:48 542K
20260417T18Z_MSC_RDPS_WindSpeed_AGL-40m_RLatLon0.09_PT026H.grib2 2026-04-17 20:48 546K
20260417T18Z_MSC_RDPS_WindSpeed_AGL-80m_RLatLon0.09_PT026H.grib2 2026-04-17 20:48 543K
20260417T18Z_MSC_RDPS_WindSpeed_IsbL-0001_RLatLon0.09_PT026H.grib2 2026-04-17 20:48 251K
20260417T18Z_MSC_RDPS_WindSpeed_IsbL-0005_RLatLon0.09_PT026H.grib2 2026-04-17 20:48 340K
20260417T18Z_MSC_RDPS_WindSpeed_IsbL-0010_RLatLon0.09_PT026H.grib2 2026-04-17 20:48 351K
20260417T18Z_MSC_RDPS_WindSpeed_IsbL-0020_RLatLon0.09_PT026H.grib2 2026-04-17 20:48 330K
20260417T18Z_MSC_RDPS_WindSpeed_IsbL-0030_RLatLon0.09_PT026H.grib2 2026-04-17 20:48 330K
20260417T18Z_MSC_RDPS_WindSpeed_IsbL-0050_RLatLon0.09_PT026H.grib2 2026-04-17 20:48 365K
20260417T18Z_MSC_RDPS_WindSpeed_IsbL-0100_RLatLon0.09_PT026H.grib2 2026-04-17 20:48 477K
20260417T18Z_MSC_RDPS_WindSpeed_IsbL-0150_RLatLon0.09_PT026H.grib2 2026-04-17 20:48 368K
20260417T18Z_MSC_RDPS_WindSpeed_IsbL-0175_RLatLon0.09_PT026H.grib2 2026-04-17 20:48 419K
20260417T18Z_MSC_RDPS_WindSpeed_IsbL-0200_RLatLon0.09_PT026H.grib2 2026-04-17 20:48 437K
20260417T18Z_MSC_RDPS_WindSpeed_IsbL-0225_RLatLon0.09_PT026H.grib2 2026-04-17 20:48 444K
20260417T18Z_MSC_RDPS_WindSpeed_IsbL-0250_RLatLon0.09_PT026H.grib2 2026-04-17 20:48 447K
20260417T18Z_MSC_RDPS_WindSpeed_IsbL-0275_RLatLon0.09_PT026H.grib2 2026-04-17 20:48 462K
20260417T18Z_MSC_RDPS_WindSpeed_IsbL-0300_RLatLon0.09_PT026H.grib2 2026-04-17 20:48 456K
20260417T18Z_MSC_RDPS_WindSpeed_IsbL-0350_RLatLon0.09_PT026H.grib2 2026-04-17 20:48 465K
20260417T18Z_MSC_RDPS_WindSpeed_IsbL-0400_RLatLon0.09_PT026H.grib2 2026-04-17 20:48 470K
20260417T18Z_MSC_RDPS_WindSpeed_IsbL-0450_RLatLon0.09_PT026H.grib2 2026-04-17 20:48 471K
20260417T18Z_MSC_RDPS_WindSpeed_IsbL-0500_RLatLon0.09_PT026H.grib2 2026-04-17 20:48 455K
20260417T18Z_MSC_RDPS_WindSpeed_IsbL-0550_RLatLon0.09_PT026H.grib2 2026-04-17 20:48 458K
20260417T18Z_MSC_RDPS_WindSpeed_IsbL-0600_RLatLon0.09_PT026H.grib2 2026-04-17 20:48 589K
20260417T18Z_MSC_RDPS_WindSpeed_IsbL-0650_RLatLon0.09_PT026H.grib2 2026-04-17 20:48 610K
20260417T18Z_MSC_RDPS_WindSpeed_IsbL-0700_RLatLon0.09_PT026H.grib2 2026-04-17 20:48 638K
20260417T18Z_MSC_RDPS_WindSpeed_IsbL-0750_RLatLon0.09_PT026H.grib2 2026-04-17 20:48 669K
20260417T18Z_MSC_RDPS_WindSpeed_IsbL-0800_RLatLon0.09_PT026H.grib2 2026-04-17 20:48 715K
20260417T18Z_MSC_RDPS_WindSpeed_IsbL-0850_RLatLon0.09_PT026H.grib2 2026-04-17 20:48 775K
20260417T18Z_MSC_RDPS_WindSpeed_IsbL-0875_RLatLon0.09_PT026H.grib2 2026-04-17 20:48 797K
20260417T18Z_MSC_RDPS_WindSpeed_IsbL-0900_RLatLon0.09_PT026H.grib2 2026-04-17 20:48 810K
20260417T18Z_MSC_RDPS_WindSpeed_IsbL-0925_RLatLon0.09_PT026H.grib2 2026-04-17 20:48 867K
20260417T18Z_MSC_RDPS_WindSpeed_IsbL-0950_RLatLon0.09_PT026H.grib2 2026-04-17 20:48 867K
20260417T18Z_MSC_RDPS_WindSpeed_IsbL-0970_RLatLon0.09_PT026H.grib2 2026-04-17 20:48 867K
20260417T18Z_MSC_RDPS_WindSpeed_IsbL-0985_RLatLon0.09_PT026H.grib2 2026-04-17 20:48 861K
20260417T18Z_MSC_RDPS_WindSpeed_IsbL-1000_RLatLon0.09_PT026H.grib2 2026-04-17 20:48 859K
20260417T18Z_MSC_RDPS_WindSpeed_IsbL-1015_RLatLon0.09_PT026H.grib2 2026-04-17 20:48 851K
20260417T18Z_MSC_RDPS_WindU_AGL-10m_RLatLon0.09_PT026H.grib2 2026-04-17 20:48 440K
20260417T18Z_MSC_RDPS_WindU_AGL-120m_RLatLon0.09_PT026H.grib2 2026-04-17 20:48 422K
20260417T18Z_MSC_RDPS_WindU_AGL-40m_RLatLon0.09_PT026H.grib2 2026-04-17 20:48 425K
20260417T18Z_MSC_RDPS_WindU_AGL-80m_RLatLon0.09_PT026H.grib2 2026-04-17 20:48 423K
20260417T18Z_MSC_RDPS_WindU_IsbL-0001_RLatLon0.09_PT026H.grib2 2026-04-17 20:48 267K
20260417T18Z_MSC_RDPS_WindU_IsbL-0005_RLatLon0.09_PT026H.grib2 2026-04-17 20:48 306K
20260417T18Z_MSC_RDPS_WindU_IsbL-0010_RLatLon0.09_PT026H.grib2 2026-04-17 20:48 316K
20260417T18Z_MSC_RDPS_WindU_IsbL-0020_RLatLon0.09_PT026H.grib2 2026-04-17 20:48 332K
20260417T18Z_MSC_RDPS_WindU_IsbL-0030_RLatLon0.09_PT026H.grib2 2026-04-17 20:48 257K
20260417T18Z_MSC_RDPS_WindU_IsbL-0050_RLatLon0.09_PT026H.grib2 2026-04-17 20:48 394K
20260417T18Z_MSC_RDPS_WindU_IsbL-0100_RLatLon0.09_PT026H.grib2 2026-04-17 20:48 335K
20260417T18Z_MSC_RDPS_WindU_IsbL-0150_RLatLon0.09_PT026H.grib2 2026-04-17 20:48 385K
20260417T18Z_MSC_RDPS_WindU_IsbL-0175_RLatLon0.09_PT026H.grib2 2026-04-17 20:48 413K
20260417T18Z_MSC_RDPS_WindU_IsbL-0200_RLatLon0.09_PT026H.grib2 2026-04-17 20:48 429K
20260417T18Z_MSC_RDPS_WindU_IsbL-0225_RLatLon0.09_PT026H.grib2 2026-04-17 20:48 435K
20260417T18Z_MSC_RDPS_WindU_IsbL-0250_RLatLon0.09_PT026H.grib2 2026-04-17 20:48 338K
20260417T18Z_MSC_RDPS_WindU_IsbL-0275_RLatLon0.09_PT026H.grib2 2026-04-17 20:48 349K
20260417T18Z_MSC_RDPS_WindU_IsbL-0300_RLatLon0.09_PT026H.grib2 2026-04-17 20:48 343K
20260417T18Z_MSC_RDPS_WindU_IsbL-0350_RLatLon0.09_PT026H.grib2 2026-04-17 20:48 350K
20260417T18Z_MSC_RDPS_WindU_IsbL-0400_RLatLon0.09_PT026H.grib2 2026-04-17 20:48 354K
20260417T18Z_MSC_RDPS_WindU_IsbL-0450_RLatLon0.09_PT026H.grib2 2026-04-17 20:48 356K
20260417T18Z_MSC_RDPS_WindU_IsbL-0500_RLatLon0.09_PT026H.grib2 2026-04-17 20:48 461K
20260417T18Z_MSC_RDPS_WindU_IsbL-0550_RLatLon0.09_PT026H.grib2 2026-04-17 20:48 465K
20260417T18Z_MSC_RDPS_WindU_IsbL-0600_RLatLon0.09_PT026H.grib2 2026-04-17 20:48 476K
20260417T18Z_MSC_RDPS_WindU_IsbL-0650_RLatLon0.09_PT026H.grib2 2026-04-17 20:48 495K
20260417T18Z_MSC_RDPS_WindU_IsbL-0700_RLatLon0.09_PT026H.grib2 2026-04-17 20:48 519K
20260417T18Z_MSC_RDPS_WindU_IsbL-0750_RLatLon0.09_PT026H.grib2 2026-04-17 20:48 547K
20260417T18Z_MSC_RDPS_WindU_IsbL-0800_RLatLon0.09_PT026H.grib2 2026-04-17 20:48 585K
20260417T18Z_MSC_RDPS_WindU_IsbL-0850_RLatLon0.09_PT026H.grib2 2026-04-17 20:48 636K
20260417T18Z_MSC_RDPS_WindU_IsbL-0875_RLatLon0.09_PT026H.grib2 2026-04-17 20:48 652K
20260417T18Z_MSC_RDPS_WindU_IsbL-0900_RLatLon0.09_PT026H.grib2 2026-04-17 20:48 662K
20260417T18Z_MSC_RDPS_WindU_IsbL-0925_RLatLon0.09_PT026H.grib2 2026-04-17 20:48 669K
20260417T18Z_MSC_RDPS_WindU_IsbL-0950_RLatLon0.09_PT026H.grib2 2026-04-17 20:48 661K
20260417T18Z_MSC_RDPS_WindU_IsbL-0970_RLatLon0.09_PT026H.grib2 2026-04-17 20:48 660K
20260417T18Z_MSC_RDPS_WindU_IsbL-0985_RLatLon0.09_PT026H.grib2 2026-04-17 20:48 659K
20260417T18Z_MSC_RDPS_WindU_IsbL-1000_RLatLon0.09_PT026H.grib2 2026-04-17 20:48 799K
20260417T18Z_MSC_RDPS_WindU_IsbL-1015_RLatLon0.09_PT026H.grib2 2026-04-17 20:48 794K
20260417T18Z_MSC_RDPS_WindV_AGL-10m_RLatLon0.09_PT026H.grib2 2026-04-17 20:48 435K
20260417T18Z_MSC_RDPS_WindV_AGL-120m_RLatLon0.09_PT026H.grib2 2026-04-17 20:48 418K
20260417T18Z_MSC_RDPS_WindV_AGL-40m_RLatLon0.09_PT026H.grib2 2026-04-17 20:48 537K
20260417T18Z_MSC_RDPS_WindV_AGL-80m_RLatLon0.09_PT026H.grib2 2026-04-17 20:48 419K
20260417T18Z_MSC_RDPS_WindV_IsbL-0001_RLatLon0.09_PT026H.grib2 2026-04-17 20:48 266K
20260417T18Z_MSC_RDPS_WindV_IsbL-0005_RLatLon0.09_PT026H.grib2 2026-04-17 20:48 305K
20260417T18Z_MSC_RDPS_WindV_IsbL-0010_RLatLon0.09_PT026H.grib2 2026-04-17 20:48 345K
20260417T18Z_MSC_RDPS_WindV_IsbL-0020_RLatLon0.09_PT026H.grib2 2026-04-17 20:48 362K
20260417T18Z_MSC_RDPS_WindV_IsbL-0030_RLatLon0.09_PT026H.grib2 2026-04-17 20:48 325K
20260417T18Z_MSC_RDPS_WindV_IsbL-0050_RLatLon0.09_PT026H.grib2 2026-04-17 20:48 358K
20260417T18Z_MSC_RDPS_WindV_IsbL-0100_RLatLon0.09_PT026H.grib2 2026-04-17 20:48 424K
20260417T18Z_MSC_RDPS_WindV_IsbL-0150_RLatLon0.09_PT026H.grib2 2026-04-17 20:48 383K
20260417T18Z_MSC_RDPS_WindV_IsbL-0175_RLatLon0.09_PT026H.grib2 2026-04-17 20:48 410K
20260417T18Z_MSC_RDPS_WindV_IsbL-0200_RLatLon0.09_PT026H.grib2 2026-04-17 20:48 430K
20260417T18Z_MSC_RDPS_WindV_IsbL-0225_RLatLon0.09_PT026H.grib2 2026-04-17 20:48 337K
20260417T18Z_MSC_RDPS_WindV_IsbL-0250_RLatLon0.09_PT026H.grib2 2026-04-17 20:48 338K
20260417T18Z_MSC_RDPS_WindV_IsbL-0275_RLatLon0.09_PT026H.grib2 2026-04-17 20:48 350K
20260417T18Z_MSC_RDPS_WindV_IsbL-0300_RLatLon0.09_PT026H.grib2 2026-04-17 20:48 345K
20260417T18Z_MSC_RDPS_WindV_IsbL-0350_RLatLon0.09_PT026H.grib2 2026-04-17 20:48 351K
20260417T18Z_MSC_RDPS_WindV_IsbL-0400_RLatLon0.09_PT026H.grib2 2026-04-17 20:48 353K
20260417T18Z_MSC_RDPS_WindV_IsbL-0450_RLatLon0.09_PT026H.grib2 2026-04-17 20:48 355K
20260417T18Z_MSC_RDPS_WindV_IsbL-0500_RLatLon0.09_PT026H.grib2 2026-04-17 20:48 356K
20260417T18Z_MSC_RDPS_WindV_IsbL-0550_RLatLon0.09_PT026H.grib2 2026-04-17 20:48 462K
20260417T18Z_MSC_RDPS_WindV_IsbL-0600_RLatLon0.09_PT026H.grib2 2026-04-17 20:48 474K
20260417T18Z_MSC_RDPS_WindV_IsbL-0650_RLatLon0.09_PT026H.grib2 2026-04-17 20:48 493K
20260417T18Z_MSC_RDPS_WindV_IsbL-0700_RLatLon0.09_PT026H.grib2 2026-04-17 20:48 516K
20260417T18Z_MSC_RDPS_WindV_IsbL-0750_RLatLon0.09_PT026H.grib2 2026-04-17 20:48 542K
20260417T18Z_MSC_RDPS_WindV_IsbL-0800_RLatLon0.09_PT026H.grib2 2026-04-17 20:48 580K
20260417T18Z_MSC_RDPS_WindV_IsbL-0850_RLatLon0.09_PT026H.grib2 2026-04-17 20:48 632K
20260417T18Z_MSC_RDPS_WindV_IsbL-0875_RLatLon0.09_PT026H.grib2 2026-04-17 20:48 651K
20260417T18Z_MSC_RDPS_WindV_IsbL-0900_RLatLon0.09_PT026H.grib2 2026-04-17 20:48 662K
20260417T18Z_MSC_RDPS_WindV_IsbL-0925_RLatLon0.09_PT026H.grib2 2026-04-17 20:48 662K
20260417T18Z_MSC_RDPS_WindV_IsbL-0950_RLatLon0.09_PT026H.grib2 2026-04-17 20:48 659K
20260417T18Z_MSC_RDPS_WindV_IsbL-0970_RLatLon0.09_PT026H.grib2 2026-04-17 20:48 656K
20260417T18Z_MSC_RDPS_WindV_IsbL-0985_RLatLon0.09_PT026H.grib2 2026-04-17 20:48 654K
20260417T18Z_MSC_RDPS_WindV_IsbL-1000_RLatLon0.09_PT026H.grib2 2026-04-17 20:48 790K
20260417T18Z_MSC_RDPS_WindV_IsbL-1015_RLatLon0.09_PT026H.grib2 2026-04-17 20:48 785K